TimeCST,TemperatureF,Dew PointF,Humidity,Sea Level PressureIn,VisibilityMPH,Wind Direction,Wind SpeedMPH,Gust SpeedMPH,PrecipitationIn,Events,Conditions,WindDirDegrees,DateUTC
12:15 AM,17.6,-7.6,32,30.44,10.0,NNE,18.4,-,N/A,,Unknown,30,2014-01-28 06:15:00
12:35 AM,17.6,-7.6,32,30.44,10.0,NE,12.7,-,N/A,,Unknown,40,2014-01-28 06:35:00
12:55 AM,15.8,-7.6,35,30.44,10.0,NE,16.1,20.7,N/A,,Unknown,40,2014-01-28 06:55:00
1:15 AM,15.8,-7.6,35,30.43,10.0,NNE,17.3,-,N/A,,Unknown,30,2014-01-28 07:15:00
1:35 AM,15.8,-7.6,35,30.44,10.0,NE,18.4,23.0,N/A,,Unknown,40,2014-01-28 07:35:00
2:15 AM,15.8,3.2,58,30.44,10.0,NNE,17.3,-,N/A,Snow,Light Snow,20,2014-01-28 08:15:00
2:35 AM,14.0,8.6,79,30.45,1.5,NNE,12.7,20.7,0.10,Snow,Light Snow,30,2014-01-28 08:35:00
2:55 AM,14.0,10.4,86,30.44,1.0,NE,10.4,-,0.39,Snow,Light Snow,40,2014-01-28 08:55:00
3:15 AM,14.0,8.6,79,30.44,2.5,NNE,11.5,-,0.06,Snow,Light Snow,30,2014-01-28 09:15:00
3:35 AM,14.0,10.4,86,30.45,3.0,NNE,13.8,18.4,0.11,Snow,Light Snow,30,2014-01-28 09:35:00
3:55 AM,14.0,10.4,86,30.45,4.0,NNE,9.2,-,0.16,Snow,Light Snow,30,2014-01-28 09:55:00
4:15 AM,14.0,10.4,86,30.44,1.8,NNE,12.7,-,0.05,Snow,Light Snow,30,2014-01-28 10:15:00
4:35 AM,14.0,8.6,79,30.44,2.0,NNE,12.7,-,0.12,Snow,Light Snow,30,2014-01-28 10:35:00
4:55 AM,14.0,10.4,86,30.43,2.5,NE,9.2,-,0.16,Snow,Light Snow,40,2014-01-28 10:55:00
5:15 AM,14.0,10.4,86,30.43,5.0,NNE,11.5,17.3,N/A,Snow,Light Snow,30,2014-01-28 11:15:00
5:35 AM,14.0,10.4,86,30.44,2.0,NE,9.2,-,0.05,Snow,Light Snow,40,2014-01-28 11:35:00
5:55 AM,14.0,10.4,86,30.45,5.0,NE,13.8,-,0.07,Snow,Light Snow,40,2014-01-28 11:55:00
6:15 AM,14.0,8.6,79,30.46,10.0,NNE,12.7,-,N/A,Snow,Light Snow,30,2014-01-28 12:15:00
6:35 AM,14.0,8.6,79,30.47,10.0,NNE,10.4,-,N/A,,Unknown,20,2014-01-28 12:35:00
6:55 AM,14.0,10.4,86,30.47,10.0,NNE,10.4,-,N/A,Snow,Light Snow,30,2014-01-28 12:55:00
7:15 AM,14.0,8.6,79,30.47,10.0,NE,10.4,-,N/A,,Overcast,40,2014-01-28 13:15:00
7:35 AM,12.2,10.4,92,30.48,10.0,NE,8.1,-,N/A,,Overcast,40,2014-01-28 13:35:00
7:55 AM,12.2,8.6,85,30.49,10.0,NNE,4.6,-,N/A,,Scattered Clouds,30,2014-01-28 13:55:00
8:15 AM,12.2,8.6,85,30.49,10.0,NNE,4.6,-,N/A,,Clear,20,2014-01-28 14:15:00
8:35 AM,12.2,8.6,85,30.50,10.0,North,-9999.0,-,N/A,,Clear,0,2014-01-28 14:35:00
8:55 AM,12.2,8.6,85,30.51,10.0,North,5.8,-,N/A,,Clear,360,2014-01-28 14:55:00
9:15 AM,14.0,10.4,86,30.52,10.0,North,8.1,-,N/A,,Clear,360,2014-01-28 15:15:00
9:35 AM,15.8,8.6,73,30.52,10.0,North,8.1,-,N/A,,Clear,10,2014-01-28 15:35:00
9:55 AM,14.0,8.6,79,30.52,10.0,North,5.8,-,N/A,,Clear,10,2014-01-28 15:55:00
10:15 AM,15.8,6.8,68,30.53,10.0,NNE,8.1,-,N/A,,Clear,30,2014-01-28 16:15:00
10:35 AM,17.6,6.8,63,30.53,10.0,North,9.2,-,N/A,,Clear,360,2014-01-28 16:35:00
10:55 AM,17.6,6.8,63,30.53,10.0,North,8.1,-,N/A,,Clear,350,2014-01-28 16:55:00
11:15 AM,17.6,6.8,63,30.53,10.0,North,6.9,-,N/A,,Clear,10,2014-01-28 17:15:00
11:35 AM,19.4,10.4,68,30.53,10.0,North,10.4,-,N/A,,Clear,10,2014-01-28 17:35:00
11:55 AM,19.4,8.6,63,30.52,10.0,North,10.4,-,N/A,,Clear,350,2014-01-28 17:55:00
12:15 PM,19.4,8.6,63,30.51,10.0,NNW,8.1,-,N/A,,Clear,340,2014-01-28 18:15:00
12:35 PM,21.2,8.6,58,30.49,10.0,NNE,8.1,-,N/A,,Clear,20,2014-01-28 18:35:00
12:55 PM,21.2,8.6,58,30.47,10.0,North,4.6,-,N/A,,Clear,350,2014-01-28 18:55:00
1:15 PM,23.0,8.6,54,30.46,10.0,Calm,Calm,-,N/A,,Clear,0,2014-01-28 19:15:00
1:35 PM,23.0,8.6,54,30.45,10.0,NW,5.8,-,N/A,,Clear,320,2014-01-28 19:35:00
1:55 PM,24.8,8.6,50,30.44,10.0,NNW,4.6,-,N/A,,Clear,330,2014-01-28 19:55:00
2:15 PM,24.8,10.4,54,30.43,10.0,North,5.8,-,N/A,,Clear,350,2014-01-28 20:15:00
2:35 PM,24.8,8.6,50,30.43,10.0,North,6.9,-,N/A,,Clear,350,2014-01-28 20:35:00
2:55 PM,26.6,8.6,47,30.42,10.0,NW,4.6,-,N/A,,Clear,310,2014-01-28 20:55:00
3:15 PM,26.6,8.6,47,30.42,10.0,NNW,5.8,-,N/A,,Clear,330,2014-01-28 21:15:00
3:35 PM,26.6,6.8,43,30.41,10.0,Calm,Calm,-,N/A,,Clear,0,2014-01-28 21:35:00
3:55 PM,26.6,5.0,40,30.41,10.0,NW,8.1,-,N/A,,Clear,320,2014-01-28 21:55:00
4:15 PM,26.6,5.0,40,30.40,10.0,WNW,4.6,-,N/A,,Clear,290,2014-01-28 22:15:00
4:35 PM,26.6,6.8,43,30.40,10.0,West,3.5,-,N/A,,Clear,260,2014-01-28 22:35:00
4:55 PM,26.6,6.8,43,30.39,10.0,SW,5.8,-,N/A,,Clear,230,2014-01-28 22:55:00
5:15 PM,26.6,5.0,40,30.39,10.0,WSW,4.6,-,N/A,,Clear,240,2014-01-28 23:15:00
5:35 PM,24.8,5.0,43,30.39,10.0,SSW,4.6,-,N/A,,Clear,200,2014-01-28 23:35:00
5:55 PM,24.8,6.8,46,30.39,10.0,SSW,4.6,-,N/A,,Clear,210,2014-01-28 23:55:00
6:15 PM,23.0,5.0,46,30.39,10.0,SSW,4.6,-,N/A,,Clear,200,2014-01-29 00:15:00
6:35 PM,21.2,5.0,50,30.39,7.0,South,5.8,-,N/A,,Unknown,190,2014-01-29 00:35:00
6:55 PM,19.4,5.0,54,30.39,10.0,South,8.1,-,N/A,,Unknown,190,2014-01-29 00:55:00
7:15 PM,19.4,5.0,54,30.39,10.0,South,8.1,-,N/A,,Unknown,190,2014-01-29 01:15:00
7:35 PM,17.6,5.0,58,30.40,10.0,South,8.1,-,N/A,,Unknown,190,2014-01-29 01:35:00
7:55 PM,17.6,5.0,58,30.39,10.0,South,6.9,-,N/A,,Unknown,190,2014-01-29 01:55:00
8:15 PM,17.6,5.0,58,30.39,10.0,SSW,8.1,-,N/A,,Unknown,200,2014-01-29 02:15:00
8:35 PM,17.6,5.0,58,30.39,10.0,SSW,8.1,-,N/A,,Unknown,200,2014-01-29 02:35:00
8:55 PM,15.8,5.0,62,30.39,10.0,South,6.9,-,N/A,,Unknown,190,2014-01-29 02:55:00
9:15 PM,17.6,5.0,58,30.38,10.0,South,8.1,-,N/A,,Unknown,190,2014-01-29 03:15:00
9:35 PM,17.6,5.0,58,30.38,10.0,SSW,6.9,-,N/A,,Unknown,210,2014-01-29 03:35:00
9:55 PM,17.6,5.0,58,30.38,10.0,SSW,6.9,-,N/A,,Unknown,200,2014-01-29 03:55:00
10:15 PM,17.6,5.0,58,30.38,10.0,SSW,5.8,-,N/A,,Unknown,200,2014-01-29 04:15:00
10:35 PM,17.6,5.0,58,30.37,10.0,SSW,6.9,-,N/A,,Unknown,200,2014-01-29 04:35:00
10:55 PM,17.6,5.0,58,30.37,10.0,SSW,8.1,-,N/A,,Unknown,210,2014-01-29 04:55:00
11:15 PM,17.6,5.0,58,30.37,10.0,SSW,8.1,-,N/A,,Unknown,210,2014-01-29 05:15:00
11:35 PM,15.8,5.0,62,30.37,10.0,SSW,6.9,-,N/A,,Unknown,200,2014-01-29 05:35:00
11:55 PM,15.8,5.0,62,30.36,10.0,SSW,6.9,-,N/A,,Unknown,210,2014-01-29 05:55:00